Location: Hiekkapohja
(62.3333°N, 25.7833°E)
Time: 19:32:09
(UTC+00:00)

CZ-2D R/B - Pass Details

Date: 07 August 2020
Orbit: 792 x 845 km, 98.7° (Epoch: 21 September)

Event Time Altitude Azimuth Distance (km) Brightness Sun altitude
Rises 00:24:06 0° 19° (NNE) 3,404 7.4 -7.8°
Reaches altitude 10° 00:26:28 10° 20° (NNE) 2,471 6.3 -7.6°
Maximum altitude 00:31:59 81° 108° (ESE) 863 2.3 -7.3°
Drops below altitude 10° 00:37:29 10° 197° (SSW) 2,468 4.0 -7.0°
Enters shadow 00:38:04 - 197° (SSW) 2,694 4.2 -6.9°
